Temp
9 9 9 9 8 9 9 8 9 8 8 9 9 9 9 9 12 12 9 9 10 10 10 13 14 15 15 15 16 16 13 14 18 19 16 14 15 12 12 12 9 8 8 8 8
9 9 9 8 8 9 9 9 8 8 8 8 8 9 9 9 10 10 10 10 10 10 10 11 12 12 12 15 14 13 11 16 14 14 13 14 14 11 12 10 8 7 7 8 8
8 8 8 8 8 8 8 8 8 8 8 8 8 8 8 9 10 9 10 10 10 11 11 11 12 13 14 15 14 14 13 14 11 13 14 13 12 13 10 11 8 7 7 7 7
8 8 8 8 7 7 8 8 8 8 8 8 8 8 9 10 12 9 10 10 11 11 12 12 12 13 14 14 14 14 12 12 11 10 13 13 12 12 12 11 9 7 7 7 6
8 8 8 7 7 7 7 7 7 8 8 8 8 8 10 10 8 10 10 10 11 11 11 11 12 13 13 13 13 13 11 9 9 10 10 11 11 12 9 8 8 8 8 6 5
8 8 7 7 7 7 7 7 8 8 8 8 8 9 9 11 10 10 10 10 10 10 10 10 10 10 13 11 12 11 10 9 9 9 9 10 10 11 8 7 8 8 6 6 5
8 8 7 7 7 9 9 9 9 10 10 9 9 9 9 9 10 10 10 10 10 10 10 10 10 11 11 11 11 9 10 10 8 8 8 9 9 7 8 7 7 7 7 6 5
8 7 7 7 7 10 11 10 11 11 10 10 10 10 9 10 10 10 10 11 11 11 10 10 10 11 10 10 11 10 10 9 8 7 7 8 10 8 6 7 6 6 6 6 5
8 7 7 8 10 10 10 11 11 11 11 11 11 11 10 10 10 10 10 9 10 11 11 11 10 9 10 7 6 8 8 8 8 7 6 7 9 7 6 6 6 6 5 5 4
7 7 6 9 10 10 10 10 11 11 12 11 11 10 10 9 9 10 10 9 9 10 10 10 8 7 5 5 5 8 8 9 8 7 7 6 3 7 6 6 5 4 4 4 4
7 7 6 9 10 10 10 10 8 9 9 9 9 10 10 10 10 10 9 9 10 10 9 10 7 6 3 6 2 1 3 4 6 6 6 5 5 6 5 5 4 3 3 3 3
7 6 6 9 9 10 9 5 5 6 8 10 10 10 10 9 9 9 9 10 10 9 9 6 5 6 7 7 7 7 7 8 6 6 4 3 3 4 5 4 4 3 2 3 3
7 6 6 9 9 8 7 5 6 6 8 10 10 10 9 9 9 8 7 8 9 8 7 6 6 7 7 5 7 6 4 6 5 5 5 4 4 4 5 4 3 3 3 3 3
6 6 6 9 9 8 6 6 6 6 8 11 10 10 9 10 9 8 7 8 9 7 7 5 6 6 6 5 5 6 4 4 5 4 4 2 4 5 3 1 2 3 2 2 1
6 6 8 8 7 7 6 6 6 6 7 11 10 10 10 10 9 8 8 8 7 7 6 6 6 6 6 4 4 4 4 4 3 1 -0 2 2 3 5 4 1 -1 3 1 1
6 6 9 8 7 6 6 6 6 8 9 11 11 11 10 9 9 8 8 8 7 7 4 4 4 2 2 3 3 3 3 4 3 -0 -1 3 5 3 3 4 3 1 2 2 0
6 6 9 8 7 6 6 5 7 8 11 10 10 10 9 10 10 9 8 4 3 3 6 4 3 2 2 3 3 0 1 1 0 -1 1 1 2 2 0 2 3 2 2 1 0
8 8 9 7 6 6 6 6 8 10 8 9 9 8 8 9 9 9 7 3 5 2 0 2 2 -3 -2 -1 0 -1 -1 4 4 2 4 1 1 5 -1 0 2 2 1 0 -1
9 8 9 8 7 6 5 5 6 7 7 6 6 9 10 10 9 8 5 2 3 5 2 0 3 -1 0 -2 -1 -2 -3 -2 2 -1 -0 -1 1 2 2 2 1 0 1 -1 -3
8 8 9 8 7 6 5 8 6 7 6 7 7 8 8 7 8 6 4 5 5 5 3 0 0 -0 -1 -2 -5 -3 -6 -1 -3 2 -0 -0 1 7 2 2 1 0 -0 -1 -2
9 6 10 9 8 4 4 6 7 7 6 6 6 6 7 6 6 7 4 5 6 5 5 1 -3 -1 -0 -4 -3 -5 -5 -6 -3 -1 1 -0 4 0 2 2 2 1 1 0 -1
6 7 11 9 5 2 5 6 7 7 7 6 6 6 6 6 5 6 7 5 6 5 5 4 -3 -2 -0 -6 -7 -6 -2 -3 1 -0 -3 -3 1 -2 -1 0 2 0 1 -2 -3
3 4 11 11 4 3 4 6 7 6 5 5 6 7 6 5 4 4 6 6 5 5 3 4 1 -2 0 -3 -2 -3 -4 -5 -7 -4 -4 -1 0 -4 -3 -2 -1 -1 -3 -3 -3
3 4 3 2 2 5 4 5 5 5 6 5 5 6 4 4 5 4 5 5 5 5 5 4 2 3 3 3 1 -1 -1 -3 -1 -2 -4 -0 -1 -2 -3 -0 -0 0 0 -2 -2
1 2 3 2 4 3 4 5 4 3 3 3 4 3 3 2 3 3 3 3 4 4 3 1 0 1 3 3 3 3 3 0 -2 0 1 -0 -1 -3 -3 -5 -2 -2 -2 0 -0
1 1 -0 0 3 3 3 2 3 3 3 2 2 2 2 1 0 -1 1 1 1 1 0 0 0 1 -0 3 3 3 3 3 2 -1 -2 -0 -0 1 -1 -7 -5 -2 -0 1 1
3 3 2 3 2 3 2 2 3 1 3 1 1 1 1 1 0 -0 -0 -0 -0 0 -1 -0 0 -0 -1 1 2 1 -1 0 -0 -1 -2 -2 0 1 -0 -0 -2 -2 -3 -1 -1
Height
812 808 804 800 796 794 791 789 786 783 781 779 778 776 774 771 769 768 770 772 769 767 763 758 755 755 756 755 754 755 772 772 755 750 758 762 763 774 773 778 787 790 793 794 801
812 807 803 799 795 792 789 787 784 782 780 778 776 775 774 771 770 771 773 769 767 765 762 760 758 756 758 755 757 763 775 758 762 760 764 763 763 773 775 781 792 795 798 800 803
812 807 803 799 795 790 787 784 781 780 778 776 775 773 773 771 771 773 772 768 766 764 762 761 758 757 757 754 756 757 765 760 768 763 758 763 768 769 778 781 783 790 796 799 802
811 806 802 797 793 789 786 783 780 778 777 775 773 772 770 770 770 773 772 768 765 762 760 758 757 756 756 757 756 758 764 763 767 769 764 765 768 769 771 772 774 783 790 796 800
810 805 800 795 791 788 784 781 779 776 775 773 772 771 770 770 774 772 771 768 765 762 760 759 758 756 756 757 756 758 766 773 773 773 774 771 773 771 777 776 776 782 790 795 798
809 804 798 793 789 784 781 779 776 774 772 771 770 770 770 769 772 771 769 767 766 764 763 761 763 762 757 762 761 764 769 776 775 777 779 776 777 774 781 778 780 783 790 794 797
809 802 795 790 785 782 778 775 773 772 770 770 771 770 771 774 771 770 768 766 766 766 766 765 763 762 762 765 765 770 772 773 777 778 780 780 780 780 776 778 782 786 789 794 797
808 802 794 788 783 779 776 773 772 770 770 770 770 771 774 771 770 770 767 765 765 765 766 766 765 763 765 768 768 772 774 781 780 781 785 783 770 771 776 778 783 786 788 792 796
806 800 794 788 783 779 775 773 772 770 771 771 770 771 774 772 771 770 768 766 763 764 765 765 766 769 769 780 791 781 786 782 780 781 786 787 773 777 776 779 784 785 788 791 796
806 799 793 786 781 778 773 772 772 771 771 771 771 775 773 774 772 770 768 765 764 764 765 766 771 779 787 794 802 782 783 773 778 784 782 787 795 780 779 780 783 786 787 790 793
804 798 791 786 781 777 772 770 773 774 771 777 777 773 774 773 771 770 767 765 764 764 769 765 782 788 802 788 802 808 807 800 789 789 788 789 785 780 779 780 784 786 786 787 789
804 796 790 784 781 778 774 776 780 780 776 774 774 774 774 773 772 769 767 767 764 767 766 783 794 789 785 783 783 783 784 779 788 789 795 794 787 777 772 771 771 777 781 782 786
802 796 790 784 781 780 779 781 781 781 779 774 773 773 774 773 773 774 772 771 767 772 777 782 788 785 785 791 786 789 797 789 794 791 785 789 777 768 756 760 767 769 771 775 780
800 793 787 783 784 783 783 783 782 782 782 771 772 773 773 772 774 774 773 775 768 777 779 787 786 787 786 793 796 788 799 797 796 800 801 801 786 761 762 769 765 765 770 771 778
797 791 785 783 786 784 786 784 783 784 805 768 771 771 770 773 772 773 774 772 778 779 783 787 787 787 787 798 798 796 800 799 802 813 824 805 810 773 757 759 770 773 765 770 775
794 788 783 782 782 784 783 783 784 783 788 768 769 766 770 770 771 772 773 775 777 779 787 794 794 800 802 801 800 801 800 800 804 821 836 796 779 775 766 758 758 766 767 769 776
790 785 782 781 783 781 780 783 791 793 769 776 775 772 774 769 769 771 774 789 794 803 785 794 800 804 804 802 802 812 813 819 830 835 814 804 796 776 772 760 757 760 765 770 775
786 784 783 781 780 778 779 784 790 780 788 782 777 778 775 771 769 769 779 795 786 799 814 808 805 827 817 818 812 821 824 793 792 809 787 805 798 755 774 766 759 760 766 772 777
784 784 782 780 779 778 782 803 806 800 797 797 787 777 771 769 774 773 782 796 791 785 805 818 801 816 813 818 821 827 841 826 807 826 821 813 779 769 767 767 767 769 772 778 782
786 784 783 780 779 778 789 793 802 800 800 796 794 784 785 782 780 783 790 782 784 783 792 808 818 813 818 822 832 831 839 829 835 811 826 808 790 747 770 771 771 774 776 779 780
786 789 786 782 780 785 808 806 800 799 800 802 799 796 789 792 791 785 791 782 777 786 786 803 825 820 815 831 826 841 844 848 831 822 810 823 772 777 767 765 766 772 772 775 777
791 800 790 784 798 808 809 802 801 801 799 800 801 800 795 796 795 787 779 785 780 784 787 790 824 825 811 835 835 833 821 824 809 817 835 834 794 782 776 769 765 773 774 778 778
803 802 793 789 816 819 814 807 803 805 806 805 802 796 795 798 804 796 784 786 786 786 793 788 804 825 805 823 819 821 823 828 841 832 837 821 801 787 783 779 776 779 781 779 777
807 815 809 807 816 814 816 813 811 808 806 806 803 799 806 801 796 795 788 787 789 789 788 788 793 786 790 784 797 809 809 818 810 822 827 796 798 791 789 779 777 776 773 774 772
817 831 830 831 820 821 818 816 817 818 814 810 807 812 812 808 803 798 796 793 787 786 790 795 798 792 782 783 783 785 785 797 808 794 790 788 789 797 786 791 778 775 773 770 768
835 838 835 833 825 824 826 830 825 823 820 818 818 815 816 817 821 817 808 804 798 795 799 799 796 792 798 783 780 780 778 772 782 793 793 785 780 774 774 785 782 774 769 766 764
839 837 835 829 831 827 833 831 827 829 819 826 824 821 820 818 816 808 805 802 803 803 805 802 797 797 803 787 782 789 800 793 794 793 796 798 777 770 773 771 775 773 772 768 766
Wind_Speed
23 22 22 21 19 18 16 16 15 14 13 12 11 11 13 14 7 7 6 10 12 18 17 12 5 5 4 2 1 3 2 3 4 5 5 5 4 3 2 7 5 4 4 11 29
24 23 23 22 21 19 17 15 14 14 12 12 11 11 12 13 5 8 9 13 14 14 13 11 5 8 2 1 1 3 4 5 2 1 4 5 4 6 5 5 4 8 12 20 25
25 25 24 23 22 20 17 15 14 13 12 12 12 11 11 9 1 2 14 14 15 13 12 8 7 2 2 3 3 3 4 4 3 4 2 7 3 2 10 4 7 12 15 13 17
26 26 25 22 21 19 18 16 14 12 12 11 11 11 11 1 1 5 14 13 13 12 10 6 3 1 2 4 2 3 5 4 2 5 3 4 6 4 4 2 7 19 17 10 11
27 27 25 21 20 19 18 16 14 12 11 10 9 8 3 1 1 9 14 12 9 14 11 5 2 2 2 2 3 2 3 5 3 6 5 3 2 3 3 5 16 17 15 12 9
27 28 25 22 20 18 18 16 14 13 11 9 7 5 1 0 3 9 13 11 11 13 10 7 3 5 1 4 2 2 5 5 4 4 3 1 2 1 5 7 14 15 11 9 11
27 28 25 22 20 18 18 14 11 10 5 3 3 2 3 3 1 6 10 8 6 8 4 6 8 4 4 2 3 5 3 2 3 4 1 1 5 8 6 11 13 11 10 9 9
28 30 26 23 20 17 15 9 7 6 4 2 1 2 1 1 3 9 11 4 7 2 4 6 8 1 3 1 3 1 3 1 1 6 0 3 7 4 10 13 12 10 9 9 8
29 30 27 24 18 18 13 5 5 6 4 3 3 2 2 0 3 8 6 3 9 4 2 3 3 2 3 4 4 2 3 5 2 7 3 4 4 3 7 8 9 9 8 10 8
31 31 29 23 16 18 11 4 2 7 4 3 8 3 2 3 6 7 7 5 3 3 1 1 3 3 4 4 4 3 3 4 3 2 3 4 8 3 6 7 9 9 8 9 10
32 33 30 23 14 16 13 1 4 3 8 2 2 1 2 10 1 5 9 4 2 1 2 1 5 2 2 2 4 4 2 2 2 2 2 7 9 9 10 8 9 9 10 10 11
34 34 30 22 12 14 7 4 2 1 3 2 2 2 1 3 2 6 15 2 2 1 3 6 3 0 2 1 1 2 1 3 2 2 1 4 10 11 9 12 15 15 11 13 9
35 35 33 20 8 7 12 4 2 1 1 2 1 1 1 3 2 5 6 3 3 4 5 4 4 1 1 3 3 2 1 2 1 6 4 4 8 8 7 10 10 9 10 10 13
34 33 28 20 2 7 4 6 1 2 3 2 2 2 1 1 1 1 4 1 3 2 3 4 1 1 0 3 1 2 3 3 3 3 4 3 6 6 4 3 9 11 11 10 10
32 32 16 7 8 3 6 6 2 1 3 1 2 1 0 1 2 2 0 2 2 2 4 0 1 1 1 2 2 2 1 2 1 2 4 3 1 7 2 4 4 3 10 8 9
32 27 6 5 3 3 9 2 1 3 3 1 1 1 1 2 2 4 1 3 1 1 4 2 2 3 1 2 2 1 1 1 2 1 1 5 5 5 2 4 2 4 5 9 8
31 18 3 5 3 10 1 3 3 4 5 6 3 4 3 3 3 2 1 4 2 4 2 2 1 1 3 2 1 5 3 2 4 2 5 4 1 8 5 3 5 11 9 8 7
24 5 3 6 11 1 3 4 4 4 4 4 5 8 3 3 3 3 3 1 2 3 2 2 5 2 5 2 4 2 4 2 4 2 3 3 5 4 3 5 5 6 8 7 6
11 4 4 10 8 4 4 5 1 2 4 7 9 3 2 2 2 3 4 3 5 3 4 2 3 1 3 3 2 3 0 2 1 1 2 3 6 2 3 5 5 7 6 4 3
7 4 4 17 2 2 5 3 2 3 4 4 2 4 4 6 6 6 2 3 4 2 3 3 3 2 2 3 4 4 2 3 3 1 4 5 5 3 2 3 4 5 7 6 3
5 3 10 18 3 5 4 2 2 0 4 4 4 5 4 4 5 4 4 3 3 3 2 4 3 3 2 3 6 2 2 2 0 2 3 1 5 3 3 8 10 5 6 6 6
5 4 19 10 5 3 2 3 2 3 2 2 1 3 3 5 5 4 4 5 4 4 1 2 4 3 6 3 4 3 4 4 2 5 0 2 6 2 3 4 6 2 3 3 4
2 2 13 12 4 4 6 5 3 6 5 5 4 1 4 4 3 8 3 3 5 3 0 1 1 3 6 3 0 2 3 3 3 2 5 3 5 4 4 4 4 4 2 4 5
3 4 4 5 1 3 4 4 6 4 2 4 6 3 6 3 5 4 7 1 6 4 12 2 3 8 7 4 3 3 3 3 3 3 3 9 7 5 4 3 3 3 7 7 7
4 2 1 4 4 6 1 5 6 6 6 6 5 7 6 4 10 8 4 8 4 5 3 5 6 7 11 8 10 13 12 9 10 10 10 6 10 7 8 5 6 5 3 4 4
3 3 5 4 4 7 9 7 8 7 3 3 11 12 6 5 3 12 11 9 6 4 4 2 2 2 2 7 10 12 10 13 11 13 12 16 19 11 9 1 4 5 3 5 4
9 5 1 5 5 4 3 5 9 8 3 13 9 6 6 7 12 19 16 17 13 12 4 4 2 2 3 3 5 1 6 7 4 4 3 3 8 8 3 3 2 5 3 4 5
Wind_Direction
356 354 351 347 343 340 336 334 333 329 327 329 332 337 341 339 340 34 40 330 325 327 330 335 303 283 272 237 49 21 72 204 230 232 157 180 136 49 75 105 61 17 102 145 150
354 352 347 343 341 334 330 329 327 322 320 318 325 333 336 339 340 61 353 336 333 335 343 351 358 337 341 178 342 127 154 219 348 85 182 164 119 134 123 130 72 86 101 127 147
353 350 346 341 336 332 329 325 323 317 316 316 314 325 331 335 302 9 344 341 340 338 330 307 293 244 192 142 208 192 202 147 357 349 43 140 106 110 127 225 180 165 153 153 147
352 351 346 341 339 335 331 325 321 316 312 311 313 317 326 278 61 355 348 343 343 340 333 298 281 231 210 183 111 196 46 88 27 358 19 106 150 168 185 239 177 151 151 144 146
352 350 345 343 341 337 332 326 320 318 310 310 312 322 344 121 53 353 351 360 1 10 16 346 354 315 293 135 117 135 128 67 95 58 53 12 128 220 126 58 121 135 147 148 146
353 349 344 343 341 339 334 326 321 314 302 301 313 320 256 268 21 349 357 351 13 12 24 19 1 300 325 39 79 70 85 121 111 72 38 52 153 216 158 125 124 140 148 151 146
352 349 345 342 340 343 342 336 336 344 331 309 311 322 51 177 309 2 354 343 16 8 359 355 346 26 3 63 1 122 68 20 161 158 120 332 258 224 167 148 142 148 155 151 155
352 348 344 343 340 344 345 346 5 9 12 28 11 354 147 59 70 353 1 34 337 336 348 331 343 73 56 103 53 117 97 23 133 140 229 117 257 254 157 153 162 163 166 163 158
350 348 343 342 340 343 347 340 29 34 42 5 351 194 4 288 1 341 355 342 323 286 241 312 347 92 59 96 26 305 222 202 204 190 126 193 276 359 148 159 169 178 172 169 163
349 348 344 343 340 344 342 288 318 20 355 309 287 46 30 340 320 314 328 332 267 320 155 9 57 58 23 69 212 188 236 293 184 224 158 210 254 251 186 179 192 188 183 178 179
347 346 344 342 340 352 348 344 33 15 46 91 302 307 17 327 323 337 342 312 224 229 90 235 67 56 249 33 175 148 147 230 156 350 260 237 257 227 218 205 203 204 192 188 183
344 344 342 342 341 359 9 56 23 350 109 207 235 236 201 357 318 345 358 58 23 35 27 28 118 168 319 24 38 46 48 300 112 183 168 290 266 255 210 216 202 196 196 188 177
346 342 341 340 339 8 54 65 88 358 119 170 187 279 247 18 44 319 16 308 43 50 29 141 152 213 89 62 30 76 133 356 268 313 234 325 275 238 231 203 193 207 190 178 176
344 342 340 342 11 355 40 355 22 339 76 199 176 235 181 190 213 327 3 48 36 69 68 113 207 137 203 93 349 228 9 18 3 44 240 99 287 297 245 214 200 193 191 177 161
341 341 345 359 333 36 329 322 353 339 25 163 176 158 238 242 151 205 47 38 84 14 73 268 138 48 95 88 329 139 46 30 85 41 35 290 258 268 108 271 258 235 184 163 150
339 338 1 28 334 313 327 334 34 54 268 19 117 305 14 214 221 139 117 49 69 125 54 103 37 60 128 82 50 140 125 156 53 97 330 241 206 273 195 220 195 167 167 150 146
337 336 66 16 338 320 318 73 26 119 356 351 331 349 347 260 170 149 144 5 122 66 268 99 64 54 30 140 5 44 64 332 347 12 228 318 94 251 290 288 219 183 164 141 135
344 0 3 354 327 315 129 61 60 19 0 0 333 309 201 26 248 216 155 272 228 103 85 116 324 98 315 152 171 176 147 208 252 235 287 32 235 262 276 321 80 123 136 130 139
3 8 346 343 341 149 81 53 222 340 302 340 322 321 5 7 297 342 202 194 193 148 153 83 281 146 54 44 65 265 94 251 270 77 44 258 288 294 5 35 65 93 117 146 172
360 340 336 351 3 89 68 92 60 25 332 356 326 37 336 330 343 19 294 204 157 98 142 232 336 225 133 76 347 143 185 43 341 283 282 293 286 320 292 202 170 168 183 198 205
18 39 351 344 13 44 78 18 18 19 33 9 329 313 329 347 333 297 254 303 104 145 81 144 102 287 97 191 179 23 345 23 118 187 206 282 279 215 266 206 201 203 193 192 195
5 41 2 356 41 29 36 331 336 338 346 342 336 279 289 357 306 285 329 28 66 143 146 183 154 239 235 252 187 178 184 162 133 283 77 137 278 275 319 360 162 199 227 235 201
17 271 24 22 58 354 329 346 355 3 6 7 301 332 351 314 320 321 358 4 48 10 164 126 263 346 332 28 114 224 221 134 110 77 211 154 264 333 348 44 70 127 255 247 245
49 21 338 33 75 45 345 358 347 15 12 330 266 312 359 294 268 286 282 23 359 333 318 323 246 214 232 239 138 250 214 217 169 164 218 226 260 298 324 84 44 287 250 246 257
26 26 116 327 337 346 44 18 9 0 355 319 337 23 338 296 302 275 329 319 278 275 268 171 224 239 259 298 284 275 273 220 209 231 236 264 245 243 261 257 271 245 243 261 275
59 15 357 296 319 7 6 12 15 348 289 333 352 341 336 323 348 305 301 288 277 25 20 328 304 342 275 269 270 279 325 292 232 242 258 271 281 276 282 280 329 305 302 304 306
355 332 189 295 355 8 27 352 345 349 355 34 15 4 338 320 301 288 281 275 263 282 305 270 248 196 247 345 350 46 338 26 318 70 240 258 275 253 333 350 305 282 286 315 310